Mountain Home, Arkansas, United States (72653)
Lat: 36.34N, Lon: 92.39W
Wx Zone: ARZ005
Local Info
Past Weather Observations for Monday, August 18, 2014

NOTE: This archive is for the closest National Weather Service station to Mountain Home. Information may differ from the station used for current weather conditions.

Click here for Long-term Archive

Time Weather Temperature Dewpoint Humidity Pressure Winds Precip Visibility
23:53
Clear
73°F / 23°C 72°F / 22°C 94% 29.86 in
(1011 mb)
Calm - 10SM
22:53
Clear
75°F / 24°C 72°F / 22°C 89% 29.86 in
(1011 mb)
SW 3.5 mph
(SW 6 kph)
- 10SM
21:53
Clear
75°F / 24°C 72°F / 22°C 89% 29.86 in
(1011 mb)
SW 3.5 mph
(SW 6 kph)
- 10SM
20:53
Clear
77°F / 25°C 70°F / 21°C 79% 29.86 in
(1011 mb)
SSW 3.5 mph
(SSW 6 kph)
- 10SM
19:53
Clear
79°F / 26°C 72°F / 22°C 79% 29.83 in
(1010 mb)
S 4.6 mph
(S 7 kph)
- 10SM
18:53
Partly Cloudy
81°F / 27°C 73°F / 23°C 79% 29.83 in
(1010 mb)
Calm - 9SM
17:53
Partly Cloudy
82°F / 28°C 73°F / 23°C 74% 29.83 in
(1010 mb)
SSE 3.5 mph
(SSE 6 kph)
- 10SM
16:53
Mostly Cloudy
84°F / 29°C 72°F / 22°C 66% 29.83 in
(1010 mb)
SW 4.6 mph
(SW 7 kph)
0.00 in
(0.00 mm)
10SM
16:49
Partly Cloudy
84°F / 29°C 72°F / 22°C 66% 29.83 in
(1010 mb)
Calm 0.00 in
(0.00 mm)
10SM
16:34
Partly Cloudy
Thunder Storms
82°F / 28°C 72°F / 22°C 70% 29.83 in
(1010 mb)
SSW 5.8 mph
(SSW 9 kph)
0.00 in
(0.00 mm)
10SM
15:53
Mostly Cloudy
Light Rain
88°F / 31°C 70°F / 21°C 55% 29.83 in
(1010 mb)
SSE 4.6 mph
(SSE 7 kph)
0.00 in
(0.00 mm)
10SM
14:53
Partly Cloudy
88°F / 31°C 66°F / 19°C 49% 29.83 in
(1010 mb)
SSW 5.8 mph
(SSW 9 kph)
- 10SM
13:53
Partly Cloudy
90°F / 32°C 70°F / 21°C 52% 29.86 in
(1011 mb)
Variable 4.6 mph
(Variable 7 kph)
- 10SM
12:53
Partly Cloudy
88°F / 31°C 70°F / 21°C 55% 29.89 in
(1012 mb)
SW 4.6 mph
(SW 7 kph)
- 10SM
11:53
Clear
84°F / 29°C 68°F / 20°C 58% 29.92 in
(1013 mb)
Variable 4.6 mph
(Variable 7 kph)
- 10SM
10:53
Partly Cloudy
82°F / 28°C 72°F / 22°C 70% 29.92 in
(1013 mb)
Calm - 8SM
09:53
Overcast
79°F / 26°C 72°F / 22°C 79% 29.95 in
(1014 mb)
Variable 3.5 mph
(Variable 6 kph)
- 8SM
09:38
Overcast
79°F / 26°C 72°F / 22°C 79% 29.92 in
(1013 mb)
Variable 3.5 mph
(Variable 6 kph)
- 8SM
08:53
Mostly Cloudy
77°F / 25°C 72°F / 22°C 83% 29.92 in
(1013 mb)
Variable 3.5 mph
(Variable 6 kph)
- 8SM
07:53
Partly Cloudy
73°F / 23°C 72°F / 22°C 94% 29.89 in
(1012 mb)
SE 5.8 mph
(SE 9 kph)
- 9SM
06:53
Mostly Cloudy
72°F / 22°C 70°F / 21°C 94% 29.92 in
(1013 mb)
ESE 5.8 mph
(ESE 9 kph)
- 8SM
06:46
Mostly Cloudy
72°F / 22°C 70°F / 21°C 94% 29.92 in
(1013 mb)
E 4.6 mph
(E 7 kph)
- 8SM
05:53
Partly Cloudy
Fog And Mist
70°F / 21°C 68°F / 20°C 94% 29.92 in
(1013 mb)
Calm - 6SM
05:49
Partly Cloudy
Fog And Mist
70°F / 21°C 68°F / 20°C 94% 29.92 in
(1013 mb)
Calm - 6SM
05:11
Mostly Cloudy
70°F / 21°C 68°F / 20°C 94% 29.92 in
(1013 mb)
SW 3.5 mph
(SW 6 kph)
- 9SM
04:53
Partly Cloudy
68°F / 20°C 66°F / 19°C 94% 29.92 in
(1013 mb)
Calm - 9SM
03:53
Clear
70°F / 21°C 68°F / 20°C 94% 29.89 in
(1012 mb)
E 3.5 mph
(E 6 kph)
- 9SM
02:53
Partly Cloudy
70°F / 21°C 68°F / 20°C 94% 29.92 in
(1013 mb)
Calm - 7SM
01:53
Clear
70°F / 21°C 70°F / 21°C 100% 29.92 in
(1013 mb)
Calm - 7SM
00:53
Clear
70°F / 21°C 70°F / 21°C 100% 29.92 in
(1013 mb)
Calm - 8SM
Time Weather Temperature Dewpoint Humidity Pressure Winds Precip Visibility


Weather for websites

WeatherForYou.com, LLC is not responsible for any damages or problems caused by this service. Current weather conditions are obtained from the closest station including government and personal stations which may have varying degrees of accuracy. Weather forecasts are derived from the NOAA NDFD. Like all things, this site belongs to Jesus Christ... He just trusts me to maintain it. If you have any questions or comments email webmaster@weatherforyou.com

Copyright © 2014, WeatherForYou.com LLC. All rights reserved.